Weather History for KPSX - August, 2012

Change the Weather History Date:

Wednesday, August 22, 2012

  Actual Average Record
Temperature  
Mean Temperature 82 °F -  
Max Temperature 93 °F 91 °F 98 °F (1951)
Min Temperature 73 °F 75 °F 66 °F (1946)
Cooling Degree Days 17    
Growing Degree Days 32 (Base 50)    
Moisture  
Dew Point 73 °F    
Average Humidity 78    
Maximum Humidity 94    
Minimum Humidity 52    
Precipitation  
Precipitation 0.92 in - - ()
Sea Level Pressure  
Sea Level Pressure 29.99 in    
Wind  
Wind Speed 8 mph (East)    
Max Wind Speed 21 mph    
Max Gust Speed 38 mph    
Visibility 8 miles    
Events Fog , Rain , Thunderstorm    
Averages and records for this station are not official NWS values.
T = Trace of Precipitation, MM = Missing Value Source: NWS Daily Summary

Daily Weather History Graph

Daily Weather History Graph

Search for Another Location

Airport or City:

Trip Planner

Search our weather history database for the weather conditions in past years. The results will help you decide how hot, cold, wet, or windy it might be!

Date:

Astronomy

Aug. 22, 2012 Rise Set
Actual Time 6:58 AM CDT 7:56 PM CDT
Civil Twilight 6:33 AM CDT 8:21 PM CDT
Nautical Twilight 6:04 AM CDT 8:50 PM CDT
Astronomical Twilight 5:35 AM CDT 9:19 PM CDT
Moon 12:04 PM CDT (8/22) 11:14 PM CDT (8/22)
Length of Visible Light 13h 47m
Length of Day
12h 58m
Waxing Crescent, 29% of the Moon is Illuminated
Aug 22
Waxing Crescent
Aug 24
First Quarter
Aug 31
Full
Sep 8
Last Quarter
Sep 15
New

Hourly Weather History & Observations

Time (CDT) Temp. Heat Index Dew Point Humidity Pressure Visibility Wind Dir Wind Speed Gust Speed Precip Events Conditions
12:53 AM 81.0 °F 86.7 °F 75.0 °F 82% 29.97 in 10.0 mi ENE 4.6 mph - N/A   Clear
1:53 AM 79.0 °F - 73.0 °F 82% 29.97 in 10.0 mi North 3.5 mph - N/A   Partly Cloudy
2:53 AM 78.1 °F - 73.0 °F 84% 29.97 in 9.0 mi NE 4.6 mph - N/A   Clear
3:53 AM 77.0 °F - 73.0 °F 88% 29.97 in 9.0 mi NNE 6.9 mph - N/A   Clear
4:53 AM 77.0 °F - 73.0 °F 88% 29.97 in 8.0 mi NNE 8.1 mph - N/A   Clear
5:53 AM 75.9 °F - 73.0 °F 91% 29.97 in 6.0 mi NE 5.8 mph - N/A   Clear
6:53 AM 77.0 °F - 73.0 °F 88% 29.98 in 7.0 mi NE 5.8 mph - N/A   Clear
8:53 AM 82.0 °F 87.9 °F 73.9 °F 76% 30.00 in 9.0 mi NE 8.1 mph - N/A   Clear
9:53 AM 86.0 °F 93.8 °F 73.9 °F 67% 30.02 in 10.0 mi NNE 9.2 mph - N/A   Clear
10:53 AM 88.0 °F 95.6 °F 73.0 °F 61% 30.02 in 10.0 mi ESE 4.6 mph - N/A   Clear
11:53 AM 91.0 °F 100.4 °F 73.9 °F 57% 30.02 in 10.0 mi East 3.5 mph - N/A   Scattered Clouds
12:53 PM 91.4 °F 98.4 °F 71.6 °F 52% 30.01 in 10.0 mi ESE 4.6 mph - N/A   Mostly Cloudy
1:53 PM 82.0 °F 85.9 °F 70.0 °F 67% 30.01 in 10.0 mi SE 19.6 mph 28.8 mph N/A Thunderstorm Thunderstorm
2:03 PM 80.6 °F 84.6 °F 71.6 °F 74% 30.00 in 6.0 mi SE 12.7 mph 38.0 mph 0.00 in Rain , Thunderstorm Light Thunderstorms and Rain
2:14 PM 80.6 °F 83.9 °F 69.8 °F 70% 30.00 in 10.0 mi SE 10.4 mph 26.5 mph 0.00 in   Mostly Cloudy
2:53 PM 84.0 °F 88.4 °F 70.0 °F 63% 29.99 in 10.0 mi West 5.8 mph - 0.00 in   Mostly Cloudy
3:07 PM 80.6 °F 85.4 °F 73.4 °F 79% 30.03 in 7.0 mi NNE 15.0 mph 21.9 mph 0.00 in Rain , Thunderstorm Light Thunderstorms and Rain
3:10 PM 78.8 °F - 73.4 °F 83% 30.03 in 1.2 mi ENE 20.7 mph 34.5 mph 0.14 in Rain , Thunderstorm Light Thunderstorms and Rain
3:17 PM 73.4 °F - 69.8 °F 88% 30.04 in 0.5 mi East 13.8 mph 34.5 mph 0.39 in Fog , Rain , Thunderstorm Heavy Thunderstorms and Rain
3:23 PM 75.2 °F - 69.8 °F 83% 30.03 in 0.5 mi SE 12.7 mph - 0.73 in Rain , Thunderstorm Heavy Thunderstorms and Rain
3:31 PM 73.4 °F - 71.6 °F 94% 30.00 in 0.5 mi South 13.8 mph - 0.89 in Fog , Rain , Thunderstorm Heavy Thunderstorms and Rain
3:39 PM 75.2 °F - 71.6 °F 89% 29.98 in 2.0 mi SSW 9.2 mph - 0.91 in Rain , Thunderstorm Thunderstorms and Rain
3:44 PM 75.2 °F - 71.6 °F 89% 29.98 in 4.0 mi South 6.9 mph - 0.92 in Rain , Thunderstorm Thunderstorms and Rain
3:53 PM 78.1 °F - 73.0 °F 84% 29.98 in 7.0 mi SSE 9.2 mph - 0.92 in Rain , Thunderstorm Light Rain
4:04 PM 80.6 °F 85.4 °F 73.4 °F 79% 29.98 in 10.0 mi South 8.1 mph - 0.00 in   Partly Cloudy
4:53 PM 82.9 °F 90.2 °F 75.0 °F 77% 29.96 in 10.0 mi SSE 9.2 mph - 0.00 in   Clear
5:53 PM 84.9 °F 93.3 °F 75.0 °F 72% 29.96 in 10.0 mi ESE 5.8 mph - N/A   Scattered Clouds
6:53 PM 84.0 °F 91.2 °F 73.9 °F 72% 29.94 in 10.0 mi ESE 9.2 mph - N/A   Clear
7:53 PM 82.0 °F 87.9 °F 73.9 °F 76% 29.94 in 10.0 mi East 4.6 mph - N/A   Clear
8:53 PM 79.0 °F - 73.0 °F 82% 29.94 in 10.0 mi NE 5.8 mph - N/A   Clear
9:53 PM 79.0 °F - 73.0 °F 82% 29.97 in 10.0 mi ENE 5.8 mph - N/A   Clear
10:53 PM 79.0 °F - 73.9 °F 84% 29.99 in 10.0 mi East 10.4 mph - N/A   Clear
11:53 PM 79.0 °F - 73.0 °F 82% 29.99 in 10.0 mi East 8.1 mph - N/A   Clear